sat.trackr.live / text

‹ back to catalog

STARLINK-6245

NORAD 57079 · 2023-088AH

PAYLOAD ACTIVE UNKNOWN

§ Identity

Operator
Country
US
Launch date
2023-06-22
Launch site
AFWTR
Launch vehicle
Mass (kg)
RCS (m²)

Purposes: comms

External: N2YO · Heavens-Above · Gunter

§ Orbital elements

Epoch: 2026-05-25T01:31:51.413664Z

Period
94.27 min
Inclination
43.0064°
Eccentricity
0.0001365
Mean motion
15.27581871 rev/d
Perigee alt
482.1 km
Apogee alt
484.0 km
Semi-major
6,861.2 km
B*
5.7339e-5
RAAN
24.5650°
Arg perigee
268.3672°
Mean anomaly
91.7023°
Rev number
16,218

§ Raw data

STARLINK-62451 57079U 23088AH  26145.06378951  .00001316  00000+0  57339-4 0  99972 57079  43.0064  24.5650 0001365 268.3672  91.7023 15.27581871162183

JSON: /api/v1/satellites/57079 · /tle

For live sub-satellite position, see the globe view (requires WebGL).

§ Visibility from observer

Set your observer location to see the next 7 days of passes ≥ 10°. The values pass through the URL so the page stays shareable.

No JS? Fill the form by hand. The geolocation button needs JavaScript.